{"data":{"norad_id":67880,"epoch":"2026-09-17T19:04:04.437984Z","epoch_age_seconds":297021,"freshness":"STALE","line1":"1 67880U 26035B   26260.79449581 -.00010589  00000+0 -32638-3 0  9997","line2":"2 67880  97.2847 192.6114 0002788  90.5493 269.6070 15.33414791 33427","mean_motion":15.33414791,"eccentricity":0.0002788,"inclination_deg":97.2847,"raan_deg":192.6114,"arg_perigee_deg":90.5493,"mean_anomaly_deg":269.607,"bstar":-0.00032638,"rev_number":3342,"period_min":93.908054653687,"perigee_km":463.72501359206,"apogee_km":467.54109977567,"semimajor_km":6843.7700566839,"source":"CELESTRAK","updated_at":"2026-09-20T09:00:43.695072Z"}}